TIANHUI 5A

Satellite information

Favourite Embed

Satellite Type and Status

PAYLOADIN ORBIT

Key statistics

Satellite TIANHUI 5A at a glance.

Uptime

775

Days in orbit

Revolutions

≈ 14.9

Per day

Orbit

SSO

Sun Synchronous Orbit

Inclination

97.8

Latest

Satellite identification and parameters

Extended collection of information and parameters for TIANHUI 5A.

Object identification

Identified? True

Debris? False

Object name: TIANHUI 5A

International designator: 2023-168A

Object number (NORAD): 58199

Object ID (CCSDS): 58199

Country: PEOPLES REPUBLIC OF CHINA (PRC)

Current information (Y/N): Y

RCS size: LARGE

Orbital parameters

Period: 96.802 minutes

Inclination: 97.8209 deg

SMA: 6983.642 km

Apoapsis: 606.484 km

Periapsis: 604.529 km

RAAN: 352.6667 deg

Eccentricy: 0.00013999

Argument of periapsis: 84.6478 deg

Mean anomaly: 275.4898 deg

Mean motion: 14.87578336 rev/day

Mean motion (dot): 0.00000751 rev/day2

B* drag term: 0.000088641453 1/REarth

Two-line elements (TLE)

Creation date: Dec. 14, 2025, 3:07 a.m.

Reference frame: TEME

Reference center: EARTH

Epoch: Dec. 13, 2025, 3:04 p.m. UTC

TLE line 0: 0 TIANHUI 5A

TLE line 1: 1 58199U 23168A 25347.62815444 .00000751 00000-0 88641-4 0 9991

TLE line 2: 2 58199 97.8209 352.6667 0001400 84.6478 275.4898 14.87578336115019

Live tracking on map

Real-time ground track for satellite TIANHUI 5A.

In-orbit conjunctions

There are no conjunctions computed for TIANHUI 5A, at the moment. Check back to stay up to date, as we update our databases every day.

Go to all conjunctions

Associated space launch

A pair of satellites officially described as for cartographic surveying purposes, details TBD.

TIANHUI 5A was lifted into orbit during the mission ‘Long March 6A | Tianhui 5’, on board a Long March 6A space rocket.

The launch took place on Oct. 31, 2023, 10:50 p.m. from Launch Complex 9A.

For more information about the launch, click the button.

Launch to space Long March 6A | Tianhui 5
Long March 6A | Tianhui 5

Agency: N/A

Status: Launch Successful

Launch date: Oct. 31, 2023, 10:50 p.m. UTC

Rocket: Long March 6A

Launch pad: Launch Complex 9A

Location: Taiyuan Satellite Launch Center, People's Republic of China

...

Latest news about this satellite

There are no fresh news available about this satellite. Check back as we update our databases every day.


Newsletter sign-up

Weekly statistics, charts and insights to help you stay on top of the space industry.